Flag for Japan Weather past 2 weeks in Nagoya, Japan

Now
82 °F

Broken clouds.


Feels Like: 92 °F
Forecast: 76 / 85 °F
Wind: 9 mph from South

Location: Nagoya Airport

Current Time: Aug 2, 2014 at 9:45:14 AM

Latest Report: Aug 2, 2014 at 9:00 AM


Visibility: N/A

Pressure: 29.86 "Hg

Humidity: 89%

Dew point: 79 °F

Location of NagoyaLocation

Historic Weather in Nagoya — Graph

°F

Nagoya temperature yesterday

Maximum temperature yesterday: 86 °F (at 1:30 PM)
Minimum temperature yesterday: 77 °F (at 2:30 AM)
Average temperature yesterday: 81 °F

Past Weeks' High & Low Weather Summary

 TemperatureHumidityPressure
High90 °F (Jul 24, 2:00 PM)100% (Jul 19, 8:00 AM)30.01 "Hg (Jul 19, 8:00 AM)
Low73 °F (Jul 20, 4:30 AM)55% (Jul 28, 4:30 PM)29.62 "Hg (Jul 23, 6:00 PM)
Average81 °F83%29.83 "Hg
* Reported Jul 18 8:00 AM — Aug 2 8:30 AM, Nagoya, Weather by CustomWeather, © 2014

Note: Actual official high and low records may vary slightly from our data, if they occured in-between our weather recording intervals... More about our weather records

Advertising

Nagoya weather history for previous 24 hours

 ConditionsComfort  
Time TempWeatherWind HumidityBarometerVisibility
8:30 AM
Aug 2
82 °FPartly sunny.5 mph89%29.86 "HgN/A
8:00 AM82 °FBroken clouds.6 mph89%29.83 "HgN/A
7:30 AM81 °FPartly sunny.5 mph94%29.83 "HgN/A
7:00 AM81 °FPartly sunny.7 mph94%29.83 "HgN/A
6:30 AM81 °FPartly sunny.7 mph89%29.83 "HgN/A
6:00 AM81 °FPartly sunny.6 mph89%29.86 "HgN/A
5:30 AM81 °FPartly sunny.5 mph89%29.86 "HgN/A
5:00 AM79 °FPassing clouds.3 mph94%29.83 "HgN/A
4:30 AM79 °FPartly cloudy.3 mph94%29.83 "HgN/A
4:00 AM79 °FPartly cloudy.6 mph100%29.83 "HgN/A
3:30 AM79 °FPartly cloudy.7 mph94%29.83 "HgN/A
3:00 AM79 °FPartly cloudy.9 mph100%29.83 "HgN/A
2:30 AM81 °FPartly cloudy.12 mph94%29.83 "HgN/A
2:00 AM81 °FPartly cloudy.10 mph94%29.86 "HgN/A
1:30 AM81 °FPassing clouds.10 mph94%29.86 "HgN/A
1:00 AM81 °FPartly cloudy.9 mph94%29.86 "HgN/A
12:30 AM81 °FPartly cloudy.10 mph94%29.86 "HgN/A
12:00 AM81 °FPartly cloudy.10 mph94%29.86 "HgN/A
11:30 PM
Aug 1
81 °FPartly cloudy.8 mph94%29.86 "HgN/A
11:00 PM81 °FPassing clouds.9 mph94%29.86 "HgN/A
10:30 PM81 °FPassing clouds.9 mph94%29.86 "HgN/A
10:00 PM81 °FPassing clouds.9 mph94%29.86 "HgN/A
9:30 PM81 °FPassing clouds.10 mph94%29.86 "HgN/A
9:00 PM81 °FPassing clouds.7 mph89%29.86 "HgN/A
8:30 PM81 °FPassing clouds.6 mph89%29.86 "HgN/A
8:00 PM82 °FPassing clouds.8 mph89%29.86 "HgN/A
7:30 PM82 °FPassing clouds.7 mph89%29.86 "HgN/A
7:00 PM82 °FPassing clouds.9 mph89%29.83 "HgN/A
6:30 PM82 °FBroken clouds.9 mph89%29.83 "HgN/A
6:00 PM82 °FBroken clouds.7 mph89%29.83 "HgN/A
5:30 PM82 °FBroken clouds.10 mph89%29.83 "HgN/A
5:00 PM84 °FBroken clouds.9 mph84%29.80 "HgN/A
4:30 PM84 °FPartly sunny.12 mph84%29.83 "HgN/A
4:00 PM84 °FBroken clouds.12 mph84%29.83 "HgN/A
3:30 PM84 °FBroken clouds.12 mph84%29.83 "HgN/A
3:00 PM84 °FBroken clouds.10 mph84%29.83 "HgN/A
2:30 PM86 °FPartly sunny.10 mph79%29.83 "HgN/A
2:00 PM86 °FPartly sunny.10 mph79%29.83 "HgN/A
1:30 PM86 °FPartly sunny.12 mph79%29.86 "HgN/A
1:00 PM84 °FPartly sunny.13 mph84%29.86 "HgN/A
12:30 PM84 °FPartly sunny.9 mph84%29.86 "HgN/A
11:30 AM84 °FPartly sunny.7 mph84%29.89 "HgN/A
11:00 AM82 °FPartly sunny.6 mph84%29.89 "HgN/A
10:30 AM84 °FPartly sunny.8 mph79%29.89 "HgN/A
10:00 AM84 °FPartly sunny.10 mph84%29.89 "HgN/A
9:30 AM82 °FPartly sunny.9 mph84%29.89 "HgN/A
9:00 AM82 °FPartly sunny.12 mph89%29.89 "HgN/A
Weather by CustomWeather, © 2014

See weather overviewHow to use our weather pages